Weather History for KADC - August, 2014

Change the Weather History Date:

Monday, August 18, 2014

  Actual Average Record
Temperature  
Mean Temperature 68 °F -  
Max Temperature 75 °F 76 °F 97 °F (1955)
Min Temperature 60 °F 54 °F 33 °F (2004)
Cooling Degree Days 2    
Growing Degree Days 18 (Base 50)    
Moisture  
Dew Point 62 °F    
Average Humidity 86    
Maximum Humidity 100    
Minimum Humidity 65    
Precipitation  
Precipitation 0.74 in - - ()
Sea Level Pressure  
Sea Level Pressure 29.75 in    
Wind  
Wind Speed 4 mph (SW)    
Max Wind Speed 12 mph    
Max Gust Speed 17 mph    
Visibility 7 miles    
Events Fog , Rain , Thunderstorm    
Averages and records for this station are not official NWS values.
T = Trace of Precipitation, MM = Missing Value Source: NWS Daily Summary

Daily Weather History Graph

Daily Weather History Graph

Search for Another Location

Airport or City:

Trip Planner

Search our weather history database for the weather conditions in past years. The results will help you decide how hot, cold, wet, or windy it might be!

Date:

Astronomy

Aug. 18, 2014 Rise Set
Actual Time 6:23 AM CDT 8:25 PM CDT
Civil Twilight 5:50 AM CDT 8:57 PM CDT
Nautical Twilight 5:10 AM CDT 9:37 PM CDT
Astronomical Twilight 4:25 AM CDT 10:22 PM CDT
Moon 12:26 AM CDT (8/18) 3:34 PM CDT (8/18)
Length of Visible Light 15h 07m
Length of Day
14h 02m
Last Quarter, 38% of the Moon is Illuminated
Aug 18
Last Quarter
Aug 25
New
Sep 2
First Quarter
Sep 8
Full
Sep 15
Last Quarter

Hourly Weather History & Observations

Time (CDT) Temp. Dew Point Humidity Pressure Visibility Wind Dir Wind Speed Gust Speed Precip Events Conditions
12:15 AM 60.8 °F 60.8 °F 100% 29.87 in 0.8 mi Calm Calm - N/A   Overcast
12:35 AM 60.8 °F 60.8 °F 100% 29.88 in 0.8 mi Calm Calm - N/A   Overcast
12:53 AM 60.8 °F 60.8 °F 100% 29.87 in 0.5 mi Calm Calm - N/A Fog Fog
1:15 AM 60.8 °F 60.8 °F 100% 29.86 in 0.5 mi East 4.6 mph - N/A Fog Fog
1:35 AM 60.8 °F 60.8 °F 100% 29.83 in 0.5 mi ESE 5.8 mph - N/A Fog Fog
2:15 AM 60.8 °F 60.8 °F 100% 29.82 in 0.8 mi ESE 4.6 mph - N/A   Overcast
2:35 AM 60.8 °F 60.8 °F 100% 29.81 in 0.8 mi ESE 6.9 mph - N/A   Overcast
2:53 AM 60.8 °F 60.8 °F 100% 29.81 in 0.8 mi ESE 3.5 mph - N/A   Overcast
3:15 AM 60.8 °F 60.8 °F 100% 29.81 in 0.5 mi ESE 3.5 mph - N/A Fog Fog
3:35 AM 60.8 °F 60.8 °F 100% 29.81 in 0.5 mi SE 3.5 mph - N/A Fog Fog
3:53 AM 60.8 °F 60.8 °F 100% 29.80 in 0.5 mi ESE 4.6 mph - N/A Fog Fog
4:15 AM 60.8 °F 60.8 °F 100% 29.80 in 0.8 mi SSE 3.5 mph - N/A   Overcast
4:35 AM 60.8 °F 60.8 °F 100% 29.80 in 0.5 mi Calm Calm - N/A Fog Fog
4:52 AM 60.8 °F 60.8 °F 100% 29.80 in 0.5 mi Calm Calm - N/A Fog , Thunderstorm Unknown
5:14 AM 60.8 °F 60.8 °F 100% 29.79 in 0.2 mi SSE 3.5 mph - N/A Fog , Thunderstorm Fog
5:35 AM 60.8 °F 60.8 °F 100% 29.79 in 0.2 mi Calm Calm - N/A Fog Fog
5:53 AM 60.8 °F 60.8 °F 100% 29.78 in 0.2 mi Calm Calm - N/A Fog , Thunderstorm Fog
6:09 AM 60.8 °F 60.8 °F 100% 29.78 in 0.2 mi Calm Calm - N/A Fog , Thunderstorm Unknown
6:35 AM 62.6 °F 60.8 °F 94% 29.79 in 2.0 mi West 5.8 mph - 0.72 in Rain , Thunderstorm Heavy Thunderstorms and Rain
6:52 AM 62.6 °F 60.8 °F 94% 29.79 in 10.0 mi South 8.1 mph - 0.74 in Rain Light Rain
7:15 AM 62.6 °F 60.8 °F 94% 29.78 in 10.0 mi SSE 3.5 mph - N/A   Mostly Cloudy
7:35 AM 62.6 °F 62.6 °F 100% 29.78 in 10.0 mi SE 3.5 mph - N/A   Mostly Cloudy
7:53 AM 62.6 °F 62.6 °F 100% 29.78 in 10.0 mi SSW 3.5 mph - N/A   Overcast
8:15 AM 62.6 °F 62.6 °F 100% 29.78 in 7.0 mi Calm Calm - N/A   Overcast
8:35 AM 64.4 °F 62.6 °F 94% 29.78 in 2.0 mi Calm Calm - N/A   Overcast
8:53 AM 64.4 °F 64.4 °F 100% 29.77 in 7.0 mi Calm Calm - N/A   Overcast
9:15 AM 66.2 °F 64.4 °F 94% 29.77 in 10.0 mi Calm Calm - N/A   Mostly Cloudy
9:34 AM 66.2 °F 64.4 °F 94% 29.77 in 10.0 mi SSW 5.8 mph - N/A   Overcast
9:52 AM 66.2 °F 64.4 °F 94% 29.76 in 10.0 mi SSW 4.6 mph - N/A   Overcast
10:14 AM 66.2 °F 64.4 °F 94% 29.76 in 10.0 mi South 5.8 mph - N/A   Overcast
10:35 AM 69.8 °F 66.2 °F 88% 29.75 in 10.0 mi South 6.9 mph - N/A   Mostly Cloudy
10:53 AM 69.8 °F 66.2 °F 88% 29.75 in 10.0 mi WSW 6.9 mph - N/A   Mostly Cloudy
11:15 AM 71.6 °F 64.4 °F 78% 29.75 in 10.0 mi SW 5.8 mph - N/A   Scattered Clouds
11:35 AM 73.4 °F 66.2 °F 78% 29.74 in 10.0 mi SW 6.9 mph - N/A   Mostly Cloudy
11:53 AM 73.4 °F 64.4 °F 73% 29.74 in 10.0 mi WSW 5.8 mph - N/A   Mostly Cloudy
12:15 PM 73.4 °F 64.4 °F 73% 29.74 in 10.0 mi SW 4.6 mph - N/A   Scattered Clouds
12:34 PM 73.4 °F 64.4 °F 73% 29.73 in 10.0 mi WSW 6.9 mph - N/A   Clear
12:53 PM 73.4 °F 64.4 °F 73% 29.73 in 10.0 mi WSW 5.8 mph - N/A   Clear
1:15 PM 73.4 °F 66.2 °F 78% 29.72 in 10.0 mi SW 4.6 mph - N/A   Clear
1:34 PM 73.4 °F 64.4 °F 73% 29.72 in 10.0 mi SW 4.6 mph - N/A   Clear
1:52 PM 75.2 °F 62.6 °F 65% 29.72 in 10.0 mi West 4.6 mph - N/A   Clear
2:14 PM 75.2 °F 62.6 °F 65% 29.71 in 10.0 mi SW 8.1 mph - N/A   Scattered Clouds
2:35 PM 75.2 °F 62.6 °F 65% 29.72 in 10.0 mi WSW 6.9 mph - N/A   Clear
2:53 PM 75.2 °F 62.6 °F 65% 29.71 in 10.0 mi SW 6.9 mph - N/A   Clear
3:15 PM 75.2 °F 62.6 °F 65% 29.70 in 10.0 mi WSW 6.9 mph - N/A   Scattered Clouds
3:35 PM 75.2 °F 64.4 °F 69% 29.70 in 10.0 mi SW 10.4 mph - N/A   Scattered Clouds
3:53 PM 75.2 °F 64.4 °F 69% 29.69 in 10.0 mi SW 9.2 mph - N/A   Clear
4:14 PM 75.2 °F 64.4 °F 69% 29.69 in 10.0 mi WSW 9.2 mph - N/A   Clear
4:34 PM 75.2 °F 64.4 °F 69% 29.68 in 10.0 mi West 9.2 mph - N/A   Clear
4:53 PM 75.2 °F 62.6 °F 65% 29.69 in 10.0 mi West 11.5 mph - N/A   Clear
5:15 PM 75.2 °F 62.6 °F 65% 29.67 in 10.0 mi West 6.9 mph - N/A   Clear
5:35 PM 75.2 °F 64.4 °F 69% 29.67 in 10.0 mi West 6.9 mph - N/A   Clear
5:53 PM 75.2 °F 62.6 °F 65% 29.69 in 10.0 mi West 8.1 mph - N/A   Clear
6:15 PM 75.2 °F 62.6 °F 65% 29.70 in 10.0 mi West 9.2 mph - N/A   Clear
6:34 PM 73.4 °F 62.6 °F 69% 29.68 in 10.0 mi West 6.9 mph - N/A   Scattered Clouds
6:52 PM 73.4 °F 64.4 °F 73% 29.68 in 10.0 mi West 4.6 mph - N/A   Scattered Clouds
7:14 PM 73.4 °F 64.4 °F 73% 29.68 in 10.0 mi West 4.6 mph - N/A   Scattered Clouds
7:35 PM 71.6 °F 64.4 °F 78% 29.68 in 10.0 mi WNW 5.8 mph - N/A Thunderstorm Scattered Clouds
7:53 PM 69.8 °F 64.4 °F 83% 29.69 in 10.0 mi North 10.4 mph 17.3 mph N/A   Mostly Cloudy
8:15 PM 68.0 °F 62.6 °F 83% 29.70 in 10.0 mi North 9.2 mph - N/A Rain Light Rain
8:35 PM 66.2 °F 60.8 °F 83% 29.71 in 10.0 mi NNW 4.6 mph - N/A   Clear
8:52 PM 64.4 °F 60.8 °F 88% 29.71 in 10.0 mi NW 3.5 mph - N/A   Clear
9:15 PM 64.4 °F 60.8 °F 88% 29.71 in 10.0 mi Calm Calm - N/A   Clear
9:35 PM 62.6 °F 60.8 °F 94% 29.70 in 10.0 mi Calm Calm - N/A   Clear
9:52 PM 62.6 °F 60.8 °F 94% 29.71 in 10.0 mi Calm Calm - N/A   Clear
10:14 PM 62.6 °F 60.8 °F 94% 29.71 in 10.0 mi Calm Calm - N/A   Clear
10:35 PM 62.6 °F 60.8 °F 94% 29.71 in 10.0 mi Calm Calm - N/A   Clear
11:15 PM 60.8 °F 60.8 °F 100% 29.72 in 10.0 mi Calm Calm - N/A   Clear
11:35 PM 60.8 °F 60.8 °F 100% 29.71 in 10.0 mi Calm Calm - N/A   Clear
11:53 PM 60.8 °F 59.0 °F 94% 29.71 in 10.0 mi Calm Calm - N/A   Scattered Clouds